Weather History for Dutch Harbor, AK

Change the Weather History Date:

Friday, July 19, 2013

  Actual Average Record
Temperature  
Mean Temperature 62 °F -  
Max Temperature 72 °F 57 °F 72 °F (2013)
Min Temperature 52 °F 45 °F 41 °F (1984)
Degree Days  
Heating Degree Days 3    
Growing Degree Days 12 (Base 50)    
Moisture  
Dew Point 54 °F    
Average Humidity 69    
Maximum Humidity 86    
Minimum Humidity 57    
Precipitation  
Precipitation 0.00 in - - ()
Sea Level Pressure  
Sea Level Pressure 30.44 in    
Wind  
Wind Speed 7 mph (South)    
Max Wind Speed 17 mph    
Max Gust Speed 21 mph    
Visibility 10 miles    
Events      
Averages and records for this station are not official NWS values.
T = Trace of Precipitation, MM = Missing Value Source: NWS Daily Summary

Daily Weather History Graph

Daily Weather History Graph

Search for Another Location

Airport:

Trip Planner

Search our weather history database for the weather conditions in past years. The results will help you decide how hot, cold, wet, or windy it might be!

Date:

Astronomy

Jul. 19, 2013 Rise Set
Actual Time 7:00 AM AKDT 11:23 PM AKDT
Civil Twilight 6:11 AM AKDT 12:11 AM AKDT
Nautical Twilight 4:57 AM AKDT 1:25 AM AKDT
Astronomical Twilight 3:44 AM AKDT 2:40 AM AKDT
Moon 8:38 PM AKDT (7/19) 3:56 AM AKDT (7/19)
Length of Visible Light 17h 59m
Length of Day
16h 23m
Waxing Gibbous, 88% of the Moon is Illuminated
Jul 19
Waxing Gibbous
Jul 22
Full
Jul 29
Last Quarter
Aug 6
New
Aug 14
First Quarter

Hourly Weather History & Observations

Time (AKDT) Temp. Dew Point Humidity Pressure Visibility Wind Dir Wind Speed Gust Speed Precip Events Conditions
12:56 AM 52.0 °F 48.0 °F 86% 30.40 in 10.0 mi Calm Calm - N/A   Partly Cloudy
1:56 AM 54.0 °F 50.0 °F 86% 30.40 in 10.0 mi Calm Calm - N/A   Clear
2:56 AM 61.0 °F 54.0 °F 78% 30.41 in 10.0 mi Calm Calm - N/A   Clear
3:56 AM 61.0 °F 54.0 °F 78% 30.42 in 10.0 mi SSE 9.2 mph - N/A   Clear
4:56 AM 61.0 °F 53.1 °F 75% 30.42 in 10.0 mi SSE 8.1 mph - N/A   Clear
5:56 AM 61.0 °F 53.1 °F 75% 30.42 in 10.0 mi SSE 9.2 mph - N/A   Scattered Clouds
6:56 AM 60.1 °F 53.1 °F 78% 30.43 in 10.0 mi SSE 9.2 mph - N/A   Scattered Clouds
7:56 AM 61.0 °F 53.1 °F 75% 30.44 in 10.0 mi SSW 8.1 mph - N/A   Scattered Clouds
8:56 AM 63.0 °F 53.1 °F 70% 30.44 in 10.0 mi South 8.1 mph - N/A   Scattered Clouds
8:58 AM 62.6 °F 53.6 °F 72% 30.42 in 10.0 mi SSW 8.1 mph - N/A   Scattered Clouds
9:56 AM 64.0 °F 55.0 °F 73% 30.45 in 10.0 mi SE 6.9 mph 17.3 mph N/A   Scattered Clouds
10:32 AM 64.4 °F 55.4 °F 73% 30.43 in 10.0 mi SE 10.4 mph - N/A   Mostly Cloudy
10:56 AM 66.0 °F 55.0 °F 68% 30.45 in 10.0 mi Calm Calm - N/A   Mostly Cloudy
11:56 AM 66.0 °F 55.0 °F 68% 30.46 in 10.0 mi SSW 10.4 mph 18.4 mph N/A   Scattered Clouds
12:29 PM 66.2 °F 53.6 °F 64% 30.44 in 10.0 mi SSW 15.0 mph - N/A   Scattered Clouds
12:56 PM 68.0 °F 53.1 °F 59% 30.46 in 10.0 mi SSW 12.7 mph - N/A   Scattered Clouds
12:59 PM 66.2 °F 53.6 °F 64% 30.44 in 10.0 mi SSW 15.0 mph - N/A   Scattered Clouds
1:56 PM 68.0 °F 54.0 °F 61% 30.46 in 10.0 mi SSW 17.3 mph - N/A   Scattered Clouds
2:56 PM 70.0 °F 55.9 °F 61% 30.45 in 10.0 mi SSE 9.2 mph - N/A   Scattered Clouds
3:56 PM 72.0 °F 57.0 °F 59% 30.45 in 10.0 mi South 12.7 mph 18.4 mph N/A   Scattered Clouds
4:56 PM 71.1 °F 55.9 °F 59% 30.45 in 10.0 mi South 13.8 mph - N/A   Clear
5:56 PM 71.1 °F 55.0 °F 57% 30.45 in 10.0 mi South 10.4 mph 20.7 mph N/A   Scattered Clouds
6:56 PM 70.0 °F 55.0 °F 59% 30.45 in 10.0 mi South 11.5 mph - N/A   Partly Cloudy
7:56 PM 69.1 °F 55.9 °F 63% 30.45 in 10.0 mi South 6.9 mph - N/A   Clear
8:56 PM 68.0 °F 55.0 °F 63% 30.45 in 10.0 mi South 10.4 mph - N/A   Mostly Cloudy
9:56 PM 63.0 °F 54.0 °F 72% 30.46 in 10.0 mi SSW 5.8 mph - N/A   Mostly Cloudy
10:56 PM 62.1 °F 52.0 °F 70% 30.47 in 10.0 mi South 9.2 mph - N/A   Mostly Cloudy
11:56 PM 62.1 °F 52.0 °F 70% 30.49 in 10.0 mi SSE 10.4 mph - N/A   Mostly Cloudy